Location: Walland Marsh
(50.9500°N, 0.8333°E)
Time: 03:39:41
(UTC+00:00)

Daily predictions for brighter satellites

Satellite Brightness Start Highest point End
(mag) Time Altitude Azimuth Time Altitude Azimuth Time Altitude Azimuth
USA 215 4.0 03:21:06 10° E 03:25:43 46° ENE 03:25:43 46° ENE
Cosmos 1943 Rocket 3.0 04:06:38 44° SE 04:07:18 47° ESE 04:12:43 10° NE
CZ-2C R/B 3.9 04:05:24 10° SE 04:10:24 38° ENE 04:13:24 21° N
CENTAUR R/B 2.9 04:16:08 51° SSE 04:17:17 59° SE 04:24:18 10° NE
Cosmos 2297 4.1 04:21:07 51° SSE 04:22:09 60° ESE 04:27:48 10° NE
NOSS 3-2 (A) 3.3 04:27:50 77° S 04:28:08 80° SE 04:34:46 10° NE
Cosmos 2278 Rocket 3.6 04:33:50 27° N 04:33:50 27° N 04:36:42 10° NNE
Envisat 4.3 04:29:57 10° NNE 04:34:45 40° E 04:39:31 10° SSE
NOSS 3-2 (C) 3.9 04:33:35 35° S 04:35:49 56° SE 04:42:10 10° NE
SKYMED 2 4.3 04:32:49 10° SE 04:37:02 51° ENE 04:37:11 51° ENE
Meteor 2-3 Rocket 3.8 04:37:36 10° S 04:43:15 80° E 04:49:01 10° NNE
Cosmos 968 Rocket 3.9 04:42:39 18° S 04:46:22 61° ESE 04:51:25 10° NNE
Landsat 5 4.4 04:42:19 10° SE 04:46:41 51° ENE 04:48:26 32° NNE
Cosmos 921 Rocket 3.4 04:50:35 58° SSE 04:50:35 58° SSE 04:54:11 10° SSE
DNEPR-1 R/B 3.8 04:53:14 66° N 04:53:47 74° NE 04:59:11 10° SE
Meteor 1-26 Rocket 4.2 04:53:50 43° NNW 04:55:50 72° W 05:01:36 10° S
Cosmos 1812 3.3 04:56:57 55° SE 04:56:57 55° SE 05:00:07 10° SSE
H-2A R/B 4.2 04:54:03 10° ESE 04:57:31 24° ENE 05:01:04 10° N
Cosmos 1151 Rocket 3.2 05:01:35 39° N 05:03:08 73° E 05:07:30 10° SSE
USA 238 DEB 3.6 05:00:10 29° SW 05:03:48 87° SE 05:10:47 10° NE
USA 238 3.6 05:00:13 29° SW 05:03:54 86° SE 05:10:53 10° NE
Cosmos 2344 3.5 05:03:34 38° WSW 05:06:39 69° NW 05:14:51 10° NE
Cosmos 1766 Rocket 4.4 05:03:18 10° SSE 05:07:29 49° E 05:11:41 10° NNE
USA 215 3.2 05:04:04 10° SE 05:10:34 68° SW 05:13:03 40° WNW
Kosmos-917 3.6 05:12:30 84° WSW 05:12:35 88° NW 05:17:47 10° NE
Meteor 1-31 Rocket 3.2 05:09:27 10° NNE 05:13:20 63° ESE 05:17:12 10° S
Cosmos 2279 Rocket 4.0 05:07:25 10° N 05:13:40 82° E 05:19:52 10° SSE
Cosmos 2297 Rocket 4.3 05:09:41 10° NNW 05:13:43 20° NE 05:17:46 10° E
Cosmos 1328 Rocket 3.7 05:12:41 19° N 05:15:49 71° ENE 05:20:09 10° SSE
SJ-12 3.8 05:14:36 10° NNE 05:18:46 85° WNW 05:22:55 10° SSW
FALCON 9 DEB 3.3 05:21:07 65° SSE 05:21:10 65° SSE 05:24:33 10° ENE
Cosmos 2369 Rocket 2.3 05:16:11 10° SSW 05:21:45 76° ESE 05:27:23 10° NNE
Cosmos 1862 3.6 05:19:49 10° S 05:23:43 68° E 05:27:40 10° NNE
COSMO-SKYMED 1 2.6 05:20:50 10° S 05:25:05 56° W 05:25:48 49° WNW
H-2A R/B 2.5 05:23:04 10° N 05:26:45 68° WNW 05:30:28 10° SSW
Cosmos 1634 Rocket 4.0 05:22:33 10° NNW 05:28:41 54° W 05:34:43 10° SSW
Cosmos 836 Rocket 4.5 05:27:51 33° NW 05:30:02 60° WSW 05:35:09 10° S
Lacrosse 4 Rocket 4.0 05:34:05 10° N 05:35:52 12° NNE 05:37:40 10° NE
CZ-4B R/B 4.2 05:32:43 10° NNE 05:36:03 35° E 05:39:22 10° SSE
Tsikada Rocket 4.3 05:33:16 10° SW 05:39:08 43° WNW 05:45:08 10° N
CZ-4B R/B 3.5 05:38:19 10° SE 05:41:06 25° ENE 05:43:52 10° N
MOS 1-B Rocket 4.4 05:35:48 10° SSW 05:41:33 38° W 05:44:44 22° NW
YAOGAN 6 3.9 05:38:18 10° N 05:40:14 26° NNW 05:40:14 26° NNW
Cosmos 783 Rocket 4.5 05:37:36 16° NNW 05:41:51 84° ENE 05:47:03 10° SSE
Cosmos 1408 Rocket 4.2 05:38:40 10° S 05:42:52 55° E 05:47:05 10° NNE
Gblst 52 Del rocket 4.5 05:41:33 25° WSW 05:45:23 89° SSE 05:52:27 10° E
Cosmos 1656 Rocket 3.6 05:40:01 10° SSW 05:45:25 83° ESE 05:50:54 10° NNE
Cosmos 1503 Rocket 4.3 05:40:43 10° SSW 05:45:57 70° ESE 05:51:18 10° NNE
CZ-4C R/B 2.9 05:42:57 10° S 05:46:01 48° W 05:46:01 48° W
DMSP B5D2-2 4.0 05:41:18 10° SSE 05:46:31 89° WSW 05:51:46 10° NNW
Cosmos 2227 Rocket 4.1 05:44:48 10° NNW 05:49:16 23° NE 05:53:42 10° E
CZ-2C R/B 3.1 05:45:32 10° SSW 05:50:40 40° W 05:54:54 14° NNW
Cosmos 1943 Rocket 2.6 05:48:15 23° WSW 05:51:11 39° NW 05:56:30 10° NNE
Cosmos 1486 Rocket 3.9 05:48:21 10° SW 05:53:37 67° WNW 05:58:54 10° NNE
Cosmos 1515 Rocket 3.4 05:51:44 10° NNW 05:56:09 83° W 06:00:29 10° S
SL-8 R/B 4.4 05:54:21 24° W 05:56:49 43° SSW 06:01:20 10° SE
Meteor 2-15 4.3 05:51:17 10° NNW 05:57:21 73° W 06:03:22 10° S
FALCON 9 DEB 2.7 05:56:51 46° WNW 05:57:29 63° N 06:00:22 10° ENE
Cosmos 2180 Rocket 4.4 05:52:50 10° NNW 05:58:57 63° W 06:05:00 10° S
Meteor 1-27 Rocket 3.8 05:53:26 10° NNW 05:59:04 85° ENE 06:04:49 10° SSE
Iridium 2 4.4 05:59:36 10° SW 06:02:59 30° WNW 06:06:24 10° NNW
COSMOS 2487 3.6 05:59:58 10° N 06:03:08 38° ENE 06:06:18 10° SE
Cosmos 773 Rocket 3.9 05:58:39 12° NNW 06:03:31 75° WSW 06:08:40 10° SSE
FALCON 9 DEB 2.8 06:03:16 37° WNW 06:04:06 55° N 06:06:55 10° ENE
Cosmos 2084 Rocket 4.5 06:04:32 22° NW 06:05:20 23° NNW 06:08:32 10° NNE
FALCON 9 DEB 2.9 06:05:16 35° WNW 06:06:09 54° N 06:08:58 10° ENE
Cosmos 2297 4.4 06:03:08 18° W 06:06:41 33° NW 06:11:50 10° NNE
SJ 16-02 2.7 06:03:10 10° S 06:07:19 43° ESE 06:11:29 10° NE
NOAA 11 4.1 06:02:08 10° NNE 06:07:38 78° WNW 06:13:06 10° SSW
CENTAUR R/B 3.0 06:03:21 16° W 06:08:15 48° NNW 06:15:36 10° NE
Alouette 2 Rocket 3.5 06:05:31 10° NNW 06:09:39 70° ENE 06:13:10 10° SSE
NOAA 12 4.2 06:07:30 10° NNE 06:12:49 80° ESE 06:18:04 10° SSW
Envisat 3.5 06:09:09 10° N 06:13:43 35° WNW 06:18:17 10° SW
Meteor 2-19 Rocket 4.4 06:07:51 10° S 06:13:56 85° W 06:20:02 10° N
Cosmos 1340 Rocket 3.4 06:11:44 10° S 06:15:37 59° E 06:19:33 10° NNE
SL-27 R/B 2.5 06:14:05 16° NNW 06:16:49 58° WSW 06:20:18 10° S
Cosmos 2278 Rocket 3.9 06:15:42 13° NW 06:17:08 14° NNW 06:20:02 10° N
Cosmos 1500 Rocket 3.8 06:14:37 10° S 06:19:04 75° E 06:23:33 10° NNE
Cosmos 1939 Rocket 2.9 06:15:26 10° NNE 06:19:25 81° ESE 06:23:18 10° S
NOSS 3-2 (A) 4.1 06:15:14 16° W 06:19:39 38° NNW 06:26:10 10° NE
FALCON 9 DEB 2.8 06:21:30 22° WNW 06:23:10 56° N 06:26:01 10° ENE
Cosmos 2098 Rocket 4.0 06:20:22 10° SW 06:23:58 28° WNW 06:28:20 10° N
Aureole 1 Rocket 4.5 06:26:23 11° NNW 06:26:23 11° NNW 06:26:47 10° NNW
NOSS 3-2 (C) 3.8 06:21:15 10° WSW 06:26:56 46° NNW 06:33:35 10° NE
Cosmos 968 Rocket 4.4 06:24:14 10° WSW 06:28:33 26° NW 06:32:52 10° N
Okean O Rocket 4.2 06:26:00 10° NE 06:29:40 25° E 06:33:18 10° SSE
Cosmos 1805 Rocket 4.2 06:26:24 10° S 06:30:43 59° E 06:35:02 10° NNE
Okean 3 Rocket 4.4 06:28:29 10° SW 06:32:31 31° WNW 06:36:34 10° N
Sich 1 4.1 06:28:26 10° SSE 06:32:34 48° E 06:36:42 10° NNE
H-2A R/B 2.4 06:29:09 10° S 06:33:14 46° W 06:37:28 10° NNW
ATLAS 3B R/B 3.7 06:29:05 10° SSW 06:35:21 51° ESE 06:41:57 10° NE
ADEOS 3.9 06:32:57 10° N 06:37:51 42° WNW 06:42:43 10° SW
Cosmos 158 Rocket 3.9 06:33:47 10° NNW 06:38:54 81° WSW 06:44:06 10° SSE
ATLAS 5 CENTAUR R/B 2.6 06:35:23 10° SSW 06:39:05 47° SE 06:43:18 10° NE
Cosmos 1500 4.4 06:35:33 10° SSE 06:39:12 46° E 06:42:52 10° NNE
Cosmos 1515 3.7 06:40:54 10° NNW 06:44:39 59° W 06:48:23 10° S
Meteor PRIRODA 4.3 06:42:03 10° N 06:45:19 32° WNW 06:48:35 10° SW
Okean 1 3.4 06:41:39 10° N 06:45:38 80° E 06:49:34 10° SSE
Cosmos 1354 Rocket 4.2 06:41:04 10° SW 06:46:13 51° WNW 06:51:24 10° NNE
CZ-2C R/B 3.2 06:41:40 10° N 06:46:16 46° WNW 06:51:01 10° SW
Meteor 1-31 Rocket 4.3 06:44:51 10° NNW 06:47:16 16° WNW 06:49:41 10° W
USA 238 DEB 4.3 06:49:18 10° W 06:55:30 38° NNW 07:02:04 10° NE
USA 238 4.3 06:49:24 10° W 06:55:36 39° NNW 07:02:11 10° NE
OPS 6432 4.2 06:54:53 10° NW 06:57:49 81° NE 07:01:07 10° SE
FALCON 9 DEB 3.2 06:54:38 10° W 06:58:00 60° N 07:01:23 10° ENE
Cosmos 2297 Rocket 2.6 06:53:12 10° NNW 06:58:52 68° ENE 07:04:30 10° SE
SMAP 3.1 06:54:57 10° N 06:59:31 56° WNW 07:04:04 10° SSW
FengYun 1-2 T 4.3 06:57:20 10° N 07:02:42 55° WNW 07:08:01 10° SW
Cosmos 1809 Rocket 4.5 06:57:35 10° SSW 07:03:46 78° WNW 07:09:57 10° N
CZ-4 R/B 3.8 07:02:12 10° NE 07:05:32 26° E 07:08:48 10° SSE
Cosmos 2369 Rocket 3.1 07:01:41 10° W 07:06:23 27° NW 07:11:07 10° NNE
